Location: Newark
(48.2642°N, 4.7433°E)
Time: 00:43:21
(UTC+00:00)

Envisat - Visible Passes

Search period start: 13 November 2019 00:00
Search period end: 23 November 2019 00:00
Orbit: 764 x 766 km, 98.1° (Epoch: 12 November)

Date Brightness Start Highest point End Pass type
(mag) Time Alt. Az. Time Alt. Az. Time Alt. Az.
13 Nov 3.1 17:40:58 10° S 17:46:03 79° WSW 17:51:11 10° NNW visible
13 Nov 6.2 19:24:26 10° WSW 19:25:56 11° W 19:27:24 10° WNW visible
14 Nov 5.4 05:46:33 10° NE 05:50:54 28° E 05:55:14 10° SSE visible
14 Nov 3.1 17:04:26 10° SE 17:09:21 52° ENE 17:14:17 10° N visible
14 Nov 5.3 18:44:38 10° SW 18:48:40 23° W 18:52:44 10° NW visible
15 Nov 6.2 05:11:11 10° ENE 05:13:42 14° E 05:16:12 10° ESE visible
15 Nov 4.0 18:06:44 10° S 18:11:37 47° W 18:16:33 10° NNW visible
16 Nov 4.3 06:11:41 10° NNE 06:16:35 46° E 06:21:26 10° S visible
16 Nov 2.9 17:29:42 10° SSE 17:34:47 85° ENE 17:39:54 10° NNW visible
16 Nov 6.0 19:11:50 10° WSW 19:14:29 14° W 19:17:09 10° NW visible
17 Nov 5.7 05:35:32 10° NE 05:39:31 23° E 05:43:29 10° SE visible
17 Nov 3.3 16:53:22 10° SE 16:58:07 42° ENE 17:02:55 10° N visible
17 Nov 5.0 18:32:54 10° SSW 18:37:17 29° W 18:41:42 10° NW visible
18 Nov 6.4 05:01:07 10° ENE 05:02:16 11° E 05:03:23 10° E visible
18 Nov 3.6 17:55:18 10° S 18:00:18 59° W 18:05:21 10° NNW visible
19 Nov 4.8 06:00:31 10° NNE 06:05:14 37° E 06:09:56 10° SSE visible
19 Nov 2.9 17:18:29 10° SSE 17:23:32 69° ENE 17:28:35 10° N visible
19 Nov 5.7 18:59:42 10° SW 19:03:04 18° W 19:06:27 10° NW visible
20 Nov 5.9 05:24:37 10° NE 05:28:08 18° E 05:31:36 10° SE visible
20 Nov 3.6 16:42:21 10° SE 16:46:55 35° ENE 16:51:31 10° N visible
20 Nov 4.6 18:21:18 10° SSW 18:25:56 35° W 18:30:36 10° NNW visible
21 Nov 3.2 17:43:56 10° S 17:49:00 73° WSW 17:54:07 10° NNW visible
21 Nov 6.3 19:28:33 10° W 19:28:56 10° W 19:29:19 10° W visible
22 Nov 5.2 05:49:25 10° NNE 05:53:53 30° E 05:58:19 10° SSE visible
22 Nov 3.0 17:07:19 10° SSE 17:12:16 56° ENE 17:17:16 10° N visible
22 Nov 5.4 18:47:47 10° SW 18:51:40 22° W 18:55:33 10° NW visible
